Time,TemperatureF,DewpointF,PressureIn,WindDirection,WindDirectionDegrees,WindSpeedMPH,WindSpeedGustMPH,Humidity,HourlyPrecipIn,Conditions,Clouds,dailyrainin,SoftwareType,DateUTC
2013-09-20 00:14:00,67.0,66.0,30.03,North,5,0.0,0.0,95,0.00,,,0.00,,2013-09-20 04:14:00,
2013-09-20 00:24:00,67.0,66.0,30.02,North,5,0.0,0.0,95,0.00,,,0.00,,2013-09-20 04:24:00,
2013-09-20 00:44:00,67.0,66.0,30.03,North,5,0.0,0.0,95,0.00,,,0.00,,2013-09-20 04:44:00,
2013-09-20 00:53:00,66.0,65.0,30.03,North,5,0.0,0.0,96,0.00,,,0.00,,2013-09-20 04:53:00,
2013-09-20 01:13:00,66.0,65.0,30.03,North,5,0.0,0.0,96,0.00,,,0.00,,2013-09-20 05:13:00,
2013-09-20 01:23:00,66.0,65.0,30.03,North,5,0.0,0.0,96,0.00,,,0.00,,2013-09-20 05:23:00,
2013-09-20 01:53:00,66.0,65.0,30.02,North,5,0.0,0.0,95,0.00,,,0.00,,2013-09-20 05:53:00,
2013-09-20 02:12:00,65.0,63.0,30.02,North,5,0.0,0.0,94,0.00,,,0.00,,2013-09-20 06:12:00,
2013-09-20 02:22:00,65.0,63.0,30.02,North,5,0.0,0.0,94,0.00,,,0.00,,2013-09-20 06:22:00,
2013-09-20 02:42:00,65.0,64.0,30.02,North,5,0.0,0.0,95,0.00,,,0.00,,2013-09-20 06:42:00,
2013-09-20 02:52:00,65.0,64.0,30.01,North,5,0.0,0.0,95,0.00,,,0.00,,2013-09-20 06:52:00,
2013-09-20 03:12:00,64.0,63.0,30.01,North,5,0.0,0.0,95,0.00,,,0.00,,2013-09-20 07:12:00,
2013-09-20 03:23:00,64.0,63.0,30.01,North,5,0.0,0.0,95,0.00,,,0.00,,2013-09-20 07:23:00,
2013-09-20 03:42:00,64.0,63.0,30.01,North,5,0.0,0.0,95,0.00,,,0.00,,2013-09-20 07:42:00,
2013-09-20 03:53:00,64.0,63.0,30.01,North,5,0.0,0.0,95,0.00,,,0.00,,2013-09-20 07:53:00,
2013-09-20 04:11:00,64.0,63.0,30.01,North,5,0.0,0.0,95,0.00,,,0.00,,2013-09-20 08:11:00,
2013-09-20 04:22:00,63.0,61.0,30.01,North,5,0.0,0.0,94,0.00,,,0.00,,2013-09-20 08:22:00,
2013-09-20 04:52:00,63.0,62.0,30.00,North,5,0.0,0.0,95,0.00,,,0.00,,2013-09-20 08:52:00,
2013-09-20 05:12:00,63.0,62.0,30.00,North,5,0.0,0.0,95,0.00,,,0.00,,2013-09-20 09:12:00,
2013-09-20 05:22:00,63.0,62.0,30.00,North,5,0.0,0.0,95,0.00,,,0.00,,2013-09-20 09:22:00,
2013-09-20 05:43:00,62.0,61.0,30.00,North,5,0.0,0.0,95,0.00,,,0.00,,2013-09-20 09:43:00,
2013-09-20 05:53:00,62.0,61.0,30.00,North,5,0.0,0.0,95,0.00,,,0.00,,2013-09-20 09:53:00,
2013-09-20 06:13:00,62.0,61.0,30.00,North,5,0.0,0.0,95,0.00,,,0.00,,2013-09-20 10:13:00,
2013-09-20 06:23:00,62.0,61.0,30.00,North,5,0.0,0.0,96,0.00,,,0.00,,2013-09-20 10:23:00,
2013-09-20 06:42:00,62.0,61.0,30.00,North,5,0.0,0.0,96,0.00,,,0.00,,2013-09-20 10:42:00,
2013-09-20 06:53:00,62.0,61.0,30.00,North,5,0.0,0.0,95,0.00,,,0.00,,2013-09-20 10:53:00,
2013-09-20 07:12:00,62.0,61.0,29.99,North,5,0.0,0.0,96,0.00,,,0.00,,2013-09-20 11:12:00,
2013-09-20 07:23:00,62.0,61.0,30.00,North,5,0.0,0.0,96,0.00,,,0.00,,2013-09-20 11:23:00,
2013-09-20 07:42:00,62.0,61.0,30.00,North,5,0.0,0.0,97,0.00,,,0.00,,2013-09-20 11:42:00,
2013-09-20 07:52:00,62.0,61.0,30.00,North,5,0.0,0.0,97,0.00,,,0.00,,2013-09-20 11:52:00,
2013-09-20 08:12:00,63.0,62.0,30.01,North,5,0.0,0.0,98,0.00,,,0.00,,2013-09-20 12:12:00,
2013-09-20 08:22:00,63.0,62.0,30.01,North,5,0.0,0.0,98,0.00,,,0.00,,2013-09-20 12:22:00,
2013-09-20 08:43:00,63.0,62.0,30.01,North,5,0.0,0.0,98,0.00,,,0.00,,2013-09-20 12:43:00,
2013-09-20 08:52:00,63.0,62.0,30.00,North,5,0.0,0.0,98,0.00,,,0.00,,2013-09-20 12:52:00,
2013-09-20 09:12:00,64.0,63.0,30.01,North,5,0.0,0.0,98,0.00,,,0.00,,2013-09-20 13:12:00,
2013-09-20 09:22:00,65.0,64.0,30.01,North,5,0.0,0.0,98,0.00,,,0.00,,2013-09-20 13:22:00,
2013-09-20 09:42:00,65.0,64.0,30.01,North,5,0.0,0.0,98,0.00,,,0.00,,2013-09-20 13:42:00,
2013-09-20 09:52:00,66.0,65.0,30.00,North,5,0.0,0.0,98,0.00,,,0.00,,2013-09-20 13:52:00,
2013-09-20 10:11:00,68.0,68.0,30.00,North,5,0.0,0.0,99,0.00,,,0.00,,2013-09-20 14:11:00,
2013-09-20 10:21:00,70.0,69.0,30.01,North,5,0.0,0.0,96,0.00,,,0.00,,2013-09-20 14:21:00,
2013-09-20 10:42:00,72.0,68.0,30.01,North,5,0.0,0.0,88,0.00,,,0.00,,2013-09-20 14:42:00,
2013-09-20 10:52:00,73.0,67.0,30.01,North,5,2.0,7.0,82,0.00,,,0.00,,2013-09-20 14:52:00,
2013-09-20 11:12:00,74.0,68.0,30.00,North,5,0.0,6.0,81,0.00,,,0.00,,2013-09-20 15:12:00,
2013-09-20 11:22:00,76.0,67.0,30.00,North,5,3.0,7.0,75,0.00,,,0.00,,2013-09-20 15:22:00,
2013-09-20 11:44:00,78.0,68.0,30.00,North,5,3.0,6.0,72,0.00,,,0.00,,2013-09-20 15:44:00,
2013-09-20 11:54:00,79.0,67.0,29.99,North,5,1.0,4.0,66,0.00,,,0.00,,2013-09-20 15:54:00,
2013-09-20 12:13:00,80.0,66.0,29.98,North,5,4.0,7.0,63,0.00,,,0.00,,2013-09-20 16:13:00,
2013-09-20 12:23:00,81.0,66.0,29.98,North,5,3.0,7.0,61,0.00,,,0.00,,2013-09-20 16:23:00,
2013-09-20 12:42:00,82.0,68.0,29.97,North,5,3.0,8.0,62,0.00,,,0.00,,2013-09-20 16:42:00,
2013-09-20 12:53:00,82.0,67.0,29.98,North,5,3.0,7.0,61,0.00,,,0.00,,2013-09-20 16:53:00,
2013-09-20 13:13:00,83.0,68.0,29.97,North,5,3.0,6.0,61,0.00,,,0.00,,2013-09-20 17:13:00,
2013-09-20 13:24:00,83.0,68.0,29.97,North,5,1.0,6.0,61,0.00,,,0.00,,2013-09-20 17:24:00,
2013-09-20 13:42:00,82.0,67.0,29.96,North,5,3.0,6.0,61,0.00,,,0.00,,2013-09-20 17:42:00,
2013-09-20 13:53:00,82.0,67.0,29.96,North,5,2.0,7.0,61,0.00,,,0.00,,2013-09-20 17:53:00,
2013-09-20 14:12:00,84.0,68.0,29.95,North,5,2.0,5.0,58,0.00,,,0.00,,2013-09-20 18:12:00,
2013-09-20 14:22:00,85.0,66.0,29.94,North,5,5.0,10.0,53,0.00,,,0.00,,2013-09-20 18:22:00,
2013-09-20 14:42:00,85.0,66.0,29.93,North,5,4.0,8.0,54,0.00,,,0.00,,2013-09-20 18:42:00,
2013-09-20 14:52:00,85.0,67.0,29.93,North,5,2.0,6.0,55,0.00,,,0.00,,2013-09-20 18:52:00,
2013-09-20 15:12:00,85.0,66.0,29.93,North,5,3.0,6.0,54,0.00,,,0.00,,2013-09-20 19:12:00,
2013-09-20 15:22:00,85.0,66.0,29.92,North,5,3.0,8.0,53,0.00,,,0.00,,2013-09-20 19:22:00,
2013-09-20 15:42:00,86.0,66.0,29.91,North,5,0.0,7.0,51,0.00,,,0.00,,2013-09-20 19:42:00,
2013-09-20 15:52:00,86.0,66.0,29.90,North,5,1.0,8.0,51,0.00,,,0.00,,2013-09-20 19:52:00,
2013-09-20 16:12:00,86.0,66.0,29.90,North,5,2.0,10.0,52,0.00,,,0.00,,2013-09-20 20:12:00,
2013-09-20 16:22:00,86.0,67.0,29.88,North,5,3.0,7.0,53,0.00,,,0.00,,2013-09-20 20:22:00,
2013-09-20 16:42:00,86.0,67.0,29.88,North,5,1.0,7.0,53,0.00,,,0.00,,2013-09-20 20:42:00,
2013-09-20 16:52:00,86.0,66.0,29.88,North,5,1.0,5.0,52,0.00,,,0.00,,2013-09-20 20:52:00,
2013-09-20 17:12:00,86.0,66.0,29.87,North,5,0.0,5.0,52,0.00,,,0.00,,2013-09-20 21:12:00,
2013-09-20 17:22:00,87.0,67.0,29.87,North,5,2.0,6.0,51,0.00,,,0.00,,2013-09-20 21:22:00,
2013-09-20 17:54:00,86.0,67.0,29.87,North,5,2.0,5.0,53,0.00,,,0.00,,2013-09-20 21:54:00,
2013-09-20 18:14:00,85.0,67.0,29.88,North,5,1.0,4.0,55,0.00,,,0.00,,2013-09-20 22:14:00,
2013-09-20 18:24:00,85.0,70.0,29.88,North,5,0.0,2.0,62,0.00,,,0.00,,2013-09-20 22:24:00,
2013-09-20 18:44:00,83.0,71.0,29.87,North,5,0.0,1.0,67,0.00,,,0.00,,2013-09-20 22:44:00,
2013-09-20 18:53:00,81.0,70.0,29.86,North,5,0.0,0.0,69,0.00,,,0.00,,2013-09-20 22:53:00,
2013-09-20 19:13:00,79.0,70.0,29.86,North,5,0.0,0.0,73,0.00,,,0.00,,2013-09-20 23:13:00,
2013-09-20 19:23:00,76.0,68.0,29.86,North,5,0.0,0.0,77,0.00,,,0.00,,2013-09-20 23:23:00,
2013-09-20 19:53:00,73.0,68.0,29.86,North,5,0.0,0.0,84,0.00,,,0.00,,2013-09-20 23:53:00,
2013-09-20 20:11:00,72.0,67.0,29.86,North,5,0.0,0.0,85,0.00,,,0.00,,2013-09-21 00:11:00,
2013-09-20 20:22:00,71.0,67.0,29.86,North,5,0.0,0.0,86,0.00,,,0.00,,2013-09-21 00:22:00,
2013-09-20 20:42:00,70.0,66.0,29.86,North,5,0.0,0.0,88,0.00,,,0.00,,2013-09-21 00:42:00,
2013-09-20 20:52:00,70.0,67.0,29.86,North,5,0.0,0.0,89,0.00,,,0.00,,2013-09-21 00:52:00,
2013-09-20 21:12:00,69.0,66.0,29.87,North,5,0.0,0.0,90,0.00,,,0.00,,2013-09-21 01:12:00,
2013-09-20 21:22:00,69.0,66.0,29.87,North,5,0.0,0.0,90,0.00,,,0.00,,2013-09-21 01:22:00,
2013-09-20 21:42:00,69.0,66.0,29.88,North,5,0.0,0.0,90,0.00,,,0.00,,2013-09-21 01:42:00,
2013-09-20 21:52:00,68.0,65.0,29.88,North,5,0.0,0.0,91,0.00,,,0.00,,2013-09-21 01:52:00,
2013-09-20 22:12:00,68.0,66.0,29.88,North,5,0.0,0.0,92,0.00,,,0.00,,2013-09-21 02:12:00,
2013-09-20 22:22:00,68.0,66.0,29.88,North,5,0.0,0.0,92,0.00,,,0.00,,2013-09-21 02:22:00,
2013-09-20 22:42:00,68.0,66.0,29.87,North,5,0.0,0.0,93,0.00,,,0.00,,2013-09-21 02:42:00,
2013-09-20 22:52:00,68.0,66.0,29.87,North,5,0.0,0.0,93,0.00,,,0.00,,2013-09-21 02:52:00,
2013-09-20 23:12:00,68.0,66.0,29.87,North,5,0.0,0.0,93,0.00,,,0.00,,2013-09-21 03:12:00,
2013-09-20 23:22:00,68.0,66.0,29.87,North,5,0.0,0.0,94,0.00,,,0.00,,2013-09-21 03:22:00,
2013-09-20 23:44:00,68.0,67.0,29.87,North,5,0.0,0.0,95,0.00,,,0.00,,2013-09-21 03:44:00,
2013-09-20 23:54:00,68.0,67.0,29.87,North,5,0.0,0.0,95,0.00,,,0.00,,2013-09-21 03:54:00,